,,Stat5,,Stat1,,Stat2,,Stat3,,Stat4,,Wind1,,Wind1,
time,status,PA1M_AVG,status,PR1M_SUM,status,RH1M_AVG,status,SR1M_AVG,status,TA1M_AVG,status,W1dAve1m,status,W1sAve1m,
2000-05-30, 00:00:00,VALID,918.028,VALID,0,VALID,99.0084,VALID,-0.101885,VALID,18.9316,VALID,296,VALID,0,
2000-05-30, 00:01:00,VALID,918.035,VALID,0,VALID,98.969,VALID,-0.0679233,VALID,18.9291,VALID,291,VALID,0,
2000-05-30, 00:02:00,VALID,918.033,VALID,0,VALID,98.8558,VALID,-0.0679233,VALID,18.8635,VALID,281,VALID,0,
2000-05-30, 00:03:00,VALID,918.035,VALID,0,VALID,98.8189,VALID,-0.0849042,VALID,18.8379,VALID,236,VALID,0,
2000-05-30, 00:04:00,VALID,918.037,VALID,0,VALID,98.7503,VALID,-0.0849042,VALID,18.7899,VALID,200,VALID,0,
2000-05-30, 00:05:00,VALID,918.017,VALID,0,VALID,98.9372,VALID,-0.101885,VALID,18.8028,VALID,198,VALID,0,
2000-05-30, 00:06:00,VALID,918.002,VALID,0,VALID,99.0122,VALID,-0.101885,VALID,18.8448,VALID,198,VALID,0,
2000-05-30, 00:07:00,VALID,917.979,VALID,0,VALID,98.9372,VALID,-0.0849042,VALID,18.8351,VALID,198,VALID,0,
2000-05-30, 00:08:00,VALID,917.967,VALID,0,VALID,98.3802,VALID,-0.101885,VALID,18.6769,VALID,198,VALID,0,
2000-05-30, 00:09:00,VALID,917.944,VALID,0,VALID,97.6961,VALID,-0.0849042,VALID,18.4953,VALID,198,VALID,0,
2000-05-30, 00:10:00,VALID,917.941,VALID,0,VALID,97.8258,VALID,-0.0509425,VALID,18.4605,VALID,198,VALID,0,
2000-05-30, 00:11:00,VALID,917.931,VALID,0,VALID,97.6948,VALID,-0.0679233,VALID,18.3862,VALID,198,VALID,0,
2000-05-30, 00:12:00,VALID,917.957,VALID,0,VALID,98.1374,VALID,-0.0849042,VALID,18.3892,VALID,198,VALID,0,
2000-05-30, 00:13:00,VALID,917.957,VALID,0,VALID,98.2556,VALID,-0.0849042,VALID,18.3924,VALID,198,VALID,0,
2000-05-30, 00:14:00,VALID,917.958,VALID,0,VALID,98.3777,VALID,-0.101885,VALID,18.4152,VALID,197,VALID,0,
2000-05-30, 00:15:00,VALID,917.95,VALID,0,VALID,98.2378,VALID,-0.0339617,VALID,18.3532,VALID,193,VALID,0,
2000-05-30, 00:16:00,VALID,917.958,VALID,0,VALID,98.2671,VALID,-0.0679233,VALID,18.3375,VALID,183,VALID,0,
2000-05-30, 00:17:00,VALID,917.951,VALID,0,VALID,98.3624,VALID,-0.0679233,VALID,18.3437,VALID,167,VALID,0,
2000-05-30, 00:18:00,VALID,917.937,VALID,0,VALID,98.1768,VALID,-0.0849042,VALID,18.2923,VALID,157,VALID,0,
2000-05-30, 00:19:00,VALID,917.905,VALID,0,VALID,98.1094,VALID,-0.0679233,VALID,18.2436,VALID,156,VALID,0,
2000-05-30, 00:20:00,VALID,917.886,VALID,0,VALID,98.3256,VALID,-0.101885,VALID,18.2692,VALID,149,VALID,0,
2000-05-30, 00:21:00,VALID,917.852,VALID,0,VALID,98.6638,VALID,-0.0679233,VALID,18.3435,VALID,149,VALID,0,
2000-05-30, 00:22:00,VALID,917.809,VALID,0,VALID,98.8291,VALID,-0.0849042,VALID,18.4351,VALID,149,VALID,0,
2000-05-30, 00:23:00,VALID,917.767,VALID,0,VALID,98.8164,VALID,-0.0679233,VALID,18.4374,VALID,149,VALID,0,
2000-05-30, 00:24:00,VALID,917.721,VALID,0,VALID,98.8431,VALID,0,VALID,18.4498,VALID,153,VALID,0,
2000-05-30, 00:25:00,VALID,917.685,VALID,0,VALID,98.9626,VALID,0.0169808,VALID,18.4849,VALID,177,VALID,0,
2000-05-30, 00:26:00,VALID,917.647,VALID,0,VALID,99.0745,VALID,0.0169808,VALID,18.5497,VALID,176,VALID,0,
2000-05-30, 00:27:00,VALID,917.621,VALID,0,VALID,98.8571,VALID,0.0169808,VALID,18.5202,VALID,160,VALID,0,
2000-05-30, 00:28:00,VALID,917.63,VALID,0,VALID,98.6587,VALID,0,VALID,18.4425,VALID,154,VALID,0,
2000-05-30, 00:29:00,VALID,917.628,VALID,0,VALID,98.585,VALID,0.0509425,VALID,18.4042,VALID,171,VALID,0,
2000-05-30, 00:30:00,VALID,917.622,VALID,0,VALID,98.5048,VALID,0.0169808,VALID,18.3751,VALID,184,VALID,0,
2000-05-30, 00:31:00,VALID,917.622,VALID,0,VALID,98.4718,VALID,0.0509425,VALID,18.3366,VALID,182,VALID,0,
2000-05-30, 00:32:00,VALID,917.621,VALID,0,VALID,98.6384,VALID,0,VALID,18.3267,VALID,171,VALID,0,
2000-05-30, 00:33:00,VALID,917.596,VALID,0,VALID,98.515,VALID,0.0509425,VALID,18.2914,VALID,167,VALID,0,
2000-05-30, 00:34:00,VALID,917.573,VALID,0,VALID,98.2976,VALID,0.0679233,VALID,18.1973,VALID,153,VALID,0.224451,
2000-05-30, 00:35:00,VALID,917.556,VALID,0,VALID,98.2264,VALID,0.0679233,VALID,18.1426,VALID,144,VALID,0.0698242,
2000-05-30, 00:36:00,VALID,917.51,VALID,0,VALID,98.7019,VALID,0.0169808,VALID,18.2007,VALID,138,VALID,0,
2000-05-30, 00:37:00,VALID,917.485,VALID,0,VALID,99.0567,VALID,0.0169808,VALID,18.3239,VALID,152,VALID,0,
2000-05-30, 00:38:00,VALID,917.45,VALID,0,VALID,99.2246,VALID,0,VALID,18.4272,VALID,148,VALID,0,
2000-05-30, 00:39:00,VALID,917.429,VALID,0,VALID,99.1737,VALID,0,VALID,18.4722,VALID,153,VALID,0.311472,
2000-05-30, 00:40:00,VALID,917.42,VALID,0,VALID,98.9219,VALID,0.0169808,VALID,18.4494,VALID,153,VALID,0.690848,
2000-05-30, 00:41:00,VALID,917.4,VALID,0,VALID,98.6854,VALID,0.0339617,VALID,18.3783,VALID,154,VALID,0.681985,
2000-05-30, 00:42:00,VALID,917.396,VALID,0,VALID,98.8851,VALID,0,VALID,18.4109,VALID,163,VALID,0.786951,
2000-05-30, 00:43:00,VALID,917.388,VALID,0,VALID,98.9919,VALID,0,VALID,18.4432,VALID,167,VALID,0.823269,
2000-05-30, 00:44:00,VALID,917.366,VALID,0,VALID,98.9614,VALID,0,VALID,18.4819,VALID,163,VALID,0.845215,
2000-05-30, 00:45:00,VALID,917.346,VALID,0,VALID,99.0694,VALID,0.0339617,VALID,18.5437,VALID,153,VALID,0.884332,
2000-05-30, 00:46:00,VALID,917.322,VALID,0,VALID,98.707,VALID,0,VALID,18.5144,VALID,149,VALID,0.631076,
2000-05-30, 00:47:00,VALID,917.285,VALID,0,VALID,98.5163,VALID,0,VALID,18.4854,VALID,140,VALID,0.62429,
2000-05-30, 00:48:00,VALID,917.244,VALID,0,VALID,98.1272,VALID,0.0339617,VALID,18.4332,VALID,132,VALID,0.527961,
2000-05-30, 00:49:00,VALID,917.204,VALID,0,VALID,98.0191,VALID,0.0339617,VALID,18.4143,VALID,126,VALID,0.60558,
2000-05-30, 00:50:00,VALID,917.173,VALID,0,VALID,98.2683,VALID,0,VALID,18.4593,VALID,134,VALID,0.363281,
2000-05-30, 00:51:00,VALID,917.15,VALID,0,VALID,98.3472,VALID,0.0339617,VALID,18.4911,VALID,134,VALID,0,
2000-05-30, 00:52:00,VALID,917.145,VALID,0,VALID,98.2899,VALID,0,VALID,18.5112,VALID,141,VALID,0,
2000-05-30, 00:53:00,VALID,917.143,VALID,0,VALID,98.1704,VALID,0.0169808,VALID,18.5114,VALID,153,VALID,0,
2000-05-30, 00:54:00,VALID,917.145,VALID,0,VALID,97.8284,VALID,-0.0509425,VALID,18.4766,VALID,163,VALID,0,
2000-05-30, 00:55:00,VALID,917.143,VALID,0,VALID,97.5855,VALID,-0.0169808,VALID,18.4021,VALID,173,VALID,0,
2000-05-30, 00:56:00,VALID,917.135,VALID,0,VALID,97.3604,VALID,-0.0509425,VALID,18.3673,VALID,180,VALID,0,
2000-05-30, 00:57:00,VALID,917.133,VALID,0,VALID,97.3744,VALID,-0.0169808,VALID,18.3154,VALID,197,VALID,0,
2000-05-30, 00:58:00,VALID,917.117,VALID,0,VALID,97.6058,VALID,-0.0679233,VALID,18.2863,VALID,208,VALID,0,
2000-05-30, 00:59:00,VALID,917.089,VALID,0,VALID,97.9161,VALID,-0.0169808,VALID,18.2824,VALID,219,VALID,0,
2000-05-30, 01:00:00,VALID,917.057,VALID,0,VALID,97.9046,VALID,-0.0169808,VALID,18.2697,VALID,230,VALID,0,
2000-05-30, 01:01:00,VALID,917.035,VALID,0,VALID,97.7762,VALID,-0.0169808,VALID,18.2282,VALID,230,VALID,0,
2000-05-30, 01:02:00,VALID,917.017,VALID,0,VALID,97.8436,VALID,-0.0339617,VALID,18.1887,VALID,229,VALID,0,
2000-05-30, 01:03:00,VALID,917.003,VALID,0,VALID,97.4736,VALID,-0.0339617,VALID,18.1283,VALID,209,VALID,0,
2000-05-30, 01:04:00,VALID,917,VALID,0,VALID,97.864,VALID,-0.0339617,VALID,18.1089,VALID,209,VALID,0,
2000-05-30, 01:05:00,VALID,916.996,VALID,0,VALID,97.8614,VALID,-0.0509425,VALID,18.0863,VALID,209,VALID,0,
2000-05-30, 01:06:00,VALID,917.016,VALID,0,VALID,98.0165,VALID,-0.0849042,VALID,18.0572,VALID,209,VALID,0,
2000-05-30, 01:07:00,VALID,917.019,VALID,0,VALID,98.0852,VALID,-0.0509425,VALID,18.0249,VALID,209,VALID,0,
2000-05-30, 01:08:00,VALID,917.017,VALID,0,VALID,98.1132,VALID,-0.0679233,VALID,17.9922,VALID,209,VALID,0,
2000-05-30, 01:09:00,VALID,917.004,VALID,0,VALID,98.2175,VALID,-0.0339617,VALID,18.0021,VALID,209,VALID,0,
2000-05-30, 01:10:00,VALID,916.993,VALID,0,VALID,98.5061,VALID,-0.0509425,VALID,18.083,VALID,285,VALID,0,
2000-05-30, 01:11:00,VALID,916.987,VALID,0,VALID,98.9486,VALID,-0.0339617,VALID,18.2701,VALID,321,VALID,0,
2000-05-30, 01:12:00,VALID,916.977,VALID,0,VALID,99.0745,VALID,-0.0679233,VALID,18.3707,VALID,312,VALID,0,
2000-05-30, 01:13:00,VALID,916.968,VALID,0,VALID,99.0822,VALID,-0.0339617,VALID,18.3993,VALID,310,VALID,0,
2000-05-30, 01:14:00,VALID,916.942,VALID,0,VALID,99.016,VALID,-0.0169808,VALID,18.3829,VALID,315,VALID,0,
2000-05-30, 01:15:00,VALID,916.94,VALID,0,VALID,98.969,VALID,-0.0339617,VALID,18.38,VALID,319,VALID,0,
2000-05-30, 01:16:00,VALID,916.932,VALID,0,VALID,98.9842,VALID,-0.0339617,VALID,18.4028,VALID,323,VALID,0,
2000-05-30, 01:17:00,VALID,916.936,VALID,0,VALID,99.03,VALID,-0.0509425,VALID,18.448,VALID,331,VALID,0,
2000-05-30, 01:18:00,VALID,916.929,VALID,0,VALID,99.1419,VALID,-0.0339617,VALID,18.5193,VALID,336,VALID,0,
2000-05-30, 01:19:00,VALID,916.949,VALID,0,VALID,99.0949,VALID,-0.0169808,VALID,18.4798,VALID,326,VALID,0,
2000-05-30, 01:20:00,VALID,916.935,VALID,0,VALID,98.9931,VALID,-0.0509425,VALID,18.4185,VALID,326,VALID,0,
2000-05-30, 01:21:00,VALID,916.933,VALID,0,VALID,99.0707,VALID,-0.0509425,VALID,18.4612,VALID,327,VALID,0,
2000-05-30, 01:22:00,VALID,916.926,VALID,0,VALID,99.0733,VALID,0,VALID,18.4572,VALID,319,VALID,0,
2000-05-30, 01:23:00,VALID,916.911,VALID,0,VALID,99.072,VALID,-0.0169808,VALID,18.4448,VALID,206,VALID,0,
2000-05-30, 01:24:00,VALID,916.898,VALID,0,VALID,99.0885,VALID,-0.0169808,VALID,18.4478,VALID,232,VALID,0,
2000-05-30, 01:25:00,VALID,916.889,VALID,0,VALID,99.1012,VALID,-0.0339617,VALID,18.4478,VALID,248,VALID,0,
2000-05-30, 01:26:00,VALID,916.894,VALID,0,VALID,99.1381,VALID,-0.0169808,VALID,18.4773,VALID,248,VALID,0,
2000-05-30, 01:27:00,VALID,916.905,VALID,0,VALID,99.1737,VALID,-0.0339617,VALID,18.5027,VALID,258,VALID,0,
2000-05-30, 01:28:00,VALID,916.899,VALID,0,VALID,99.2424,VALID,-0.0339617,VALID,18.5544,VALID,311,VALID,0,
2000-05-30, 01:29:00,VALID,916.897,VALID,0,VALID,99.2538,VALID,0,VALID,18.577,VALID,314,VALID,0,
2000-05-30, 01:30:00,VALID,916.902,VALID,0,VALID,99.2729,VALID,-0.0169808,VALID,18.5862,VALID,312,VALID,0,
2000-05-30, 01:31:00,VALID,916.91,VALID,0,VALID,99.3212,VALID,-0.0169808,VALID,18.6252,VALID,313,VALID,0,
2000-05-30, 01:32:00,VALID,916.93,VALID,0,VALID,99.3466,VALID,0,VALID,18.6607,VALID,313,VALID,0,
2000-05-30, 01:33:00,VALID,916.933,VALID,0,VALID,99.3632,VALID,0,VALID,18.6766,VALID,314,VALID,0,
2000-05-30, 01:34:00,VALID,916.942,VALID,0,VALID,99.3517,VALID,-0.0169808,VALID,18.6766,VALID,318,VALID,0,
2000-05-30, 01:35:00,VALID,916.949,VALID,0,VALID,99.2831,VALID,0,VALID,18.6222,VALID,320,VALID,0,
2000-05-30, 01:36:00,VALID,916.942,VALID,0,VALID,99.189,VALID,-0.0169808,VALID,18.5149,VALID,320,VALID,0,
2000-05-30, 01:37:00,VALID,916.933,VALID,0,VALID,99.1394,VALID,0,VALID,18.4439,VALID,320,VALID,0,
2000-05-30, 01:38:00,VALID,916.935,VALID,0,VALID,99.0911,VALID,0,VALID,18.3862,VALID,320,VALID,0,
2000-05-30, 01:39:00,VALID,916.936,VALID,0,VALID,99.1216,VALID,0,VALID,18.3566,VALID,320,VALID,0,
2000-05-30, 01:40:00,VALID,916.932,VALID,0,VALID,99.1826,VALID,0,VALID,18.3504,VALID,320,VALID,0,
2000-05-30, 01:41:00,VALID,916.916,VALID,0,VALID,99.2055,VALID,0,VALID,18.3507,VALID,314,VALID,0,
2000-05-30, 01:42:00,VALID,916.899,VALID,0,VALID,99.2716,VALID,-0.0169808,VALID,18.3571,VALID,275,VALID,0,
2000-05-30, 01:43:00,VALID,916.88,VALID,0,VALID,99.2449,VALID,-0.0169808,VALID,18.3534,VALID,254,VALID,0,
2000-05-30, 01:44:00,VALID,916.869,VALID,0,VALID,99.208,VALID,0,VALID,18.311,VALID,252,VALID,0,
2000-05-30, 01:45:00,VALID,916.858,VALID,0,VALID,99.2551,VALID,0,VALID,18.3179,VALID,240,VALID,0,
2000-05-30, 01:46:00,VALID,916.852,VALID,0,VALID,99.2729,VALID,0,VALID,18.3315,VALID,235,VALID,0,
2000-05-30, 01:47:00,VALID,916.849,VALID,0,VALID,99.3416,VALID,0,VALID,18.3502,VALID,235,VALID,0,
2000-05-30, 01:48:00,VALID,916.849,VALID,0,VALID,99.4433,VALID,-0.0509425,VALID,18.4088,VALID,235,VALID,0,
2000-05-30, 01:49:00,VALID,916.855,VALID,0,VALID,99.5031,VALID,-0.0339617,VALID,18.4985,VALID,235,VALID,0,
2000-05-30, 01:50:00,VALID,916.837,VALID,0,VALID,99.5069,VALID,0,VALID,18.5606,VALID,235,VALID,0,
2000-05-30, 01:51:00,VALID,916.811,VALID,0,VALID,99.4751,VALID,-0.0169808,VALID,18.5733,VALID,235,VALID,0,
2000-05-30, 01:52:00,VALID,916.804,VALID,0,VALID,99.3403,VALID,-0.0169808,VALID,18.4826,VALID,235,VALID,0,
2000-05-30, 01:53:00,VALID,916.798,VALID,0,VALID,99.2513,VALID,-0.0169808,VALID,18.3855,VALID,235,VALID,0,
2000-05-30, 01:54:00,VALID,916.793,VALID,0,VALID,99.3123,VALID,0,VALID,18.3857,VALID,235,VALID,0,
2000-05-30, 01:55:00,VALID,916.79,VALID,0,VALID,99.4217,VALID,-0.0169808,VALID,18.4051,VALID,235,VALID,0,
2000-05-30, 01:56:00,VALID,916.778,VALID,0,VALID,99.5577,VALID,0,VALID,18.4854,VALID,235,VALID,0,
2000-05-30, 01:57:00,VALID,916.764,VALID,0,VALID,99.6073,VALID,0,VALID,18.583,VALID,223,VALID,0,
2000-05-30, 01:58:00,VALID,916.758,VALID,0,VALID,99.5755,VALID,-0.0169808,VALID,18.5954,VALID,189,VALID,0,
2000-05-30, 01:59:00,VALID,916.744,VALID,0,VALID,99.4865,VALID,0,VALID,18.5735,VALID,180,VALID,0,
2000-05-30, 02:00:00,VALID,916.717,VALID,0,VALID,99.3962,VALID,0,VALID,18.4789,VALID,180,VALID,0,
2000-05-30, 02:01:00,VALID,916.698,VALID,0,VALID,99.3734,VALID,-0.0169808,VALID,18.4312,VALID,180,VALID,0,
2000-05-30, 02:02:00,VALID,916.682,VALID,0,VALID,99.47,VALID,0,VALID,18.4503,VALID,180,VALID,0,
2000-05-30, 02:03:00,VALID,916.664,VALID,0,VALID,99.4522,VALID,0,VALID,18.4404,VALID,180,VALID,0,
2000-05-30, 02:04:00,VALID,916.671,VALID,0,VALID,99.3479,VALID,-0.0169808,VALID,18.3661,VALID,164,VALID,0,
2000-05-30, 02:05:00,VALID,916.665,VALID,0,VALID,99.2729,VALID,0,VALID,18.2886,VALID,124,VALID,0,
2000-05-30, 02:06:00,VALID,916.653,VALID,0,VALID,99.2869,VALID,-0.0509425,VALID,18.2404,VALID,131,VALID,0.216797,
2000-05-30, 02:07:00,VALID,916.663,VALID,0,VALID,99.5031,VALID,-0.0169808,VALID,18.347,VALID,133,VALID,0.666233,
2000-05-30, 02:08:00,VALID,916.647,VALID,0,VALID,99.428,VALID,-0.0339617,VALID,18.334,VALID,116,VALID,0.616951,
2000-05-30, 02:09:00,VALID,916.62,VALID,0,VALID,99.4217,VALID,-0.0339617,VALID,18.3179,VALID,107,VALID,0.66324,
2000-05-30, 02:10:00,VALID,916.603,VALID,0,VALID,99.4268,VALID,-0.0509425,VALID,18.3184,VALID,105,VALID,0.614732,
2000-05-30, 02:11:00,VALID,916.586,VALID,0,VALID,99.4242,VALID,0,VALID,18.302,VALID,105,VALID,0.623851,
2000-05-30, 02:12:00,VALID,916.569,VALID,0,VALID,99.4039,VALID,-0.0169808,VALID,18.2861,VALID,105,VALID,0.505068,
2000-05-30, 02:13:00,VALID,916.552,VALID,0,VALID,99.428,VALID,0,VALID,18.2724,VALID,119,VALID,0.542019,
2000-05-30, 02:14:00,VALID,916.562,VALID,0,VALID,99.4916,VALID,-0.0339617,VALID,18.3017,VALID,137,VALID,0.383789,
2000-05-30, 02:15:00,VALID,916.569,VALID,0,VALID,99.5285,VALID,-0.0339617,VALID,18.3345,VALID,140,VALID,0.52322,
2000-05-30, 02:16:00,VALID,916.56,VALID,0,VALID,99.5463,VALID,-0.0339617,VALID,18.3564,VALID,139,VALID,0.659071,
2000-05-30, 02:17:00,VALID,916.558,VALID,0,VALID,99.5539,VALID,-0.0169808,VALID,18.3855,VALID,137,VALID,0.599432,
2000-05-30, 02:18:00,VALID,916.561,VALID,0,VALID,99.5425,VALID,-0.0339617,VALID,18.3954,VALID,137,VALID,0.382607,
2000-05-30, 02:19:00,VALID,916.562,VALID,0,VALID,99.5463,VALID,-0.0339617,VALID,18.4222,VALID,138,VALID,0,
2000-05-30, 02:20:00,VALID,916.555,VALID,0,VALID,99.5043,VALID,-0.0339617,VALID,18.4086,VALID,138,VALID,0,
2000-05-30, 02:21:00,VALID,916.552,VALID,0,VALID,99.4903,VALID,-0.0509425,VALID,18.415,VALID,191,VALID,0,
2000-05-30, 02:22:00,VALID,916.548,VALID,0,VALID,99.4954,VALID,-0.0169808,VALID,18.4155,VALID,193,VALID,0,
2000-05-30, 02:23:00,VALID,916.551,VALID,0,VALID,99.4967,VALID,-0.0339617,VALID,18.4152,VALID,193,VALID,0,
2000-05-30, 02:24:00,VALID,916.554,VALID,0,VALID,99.4814,VALID,0,VALID,18.4215,VALID,193,VALID,0,
2000-05-30, 02:25:00,VALID,916.543,VALID,0,VALID,99.4776,VALID,-0.0169808,VALID,18.4051,VALID,193,VALID,0,
2000-05-30, 02:26:00,VALID,916.531,VALID,0,VALID,99.4624,VALID,-0.0509425,VALID,18.4021,VALID,193,VALID,0,
2000-05-30, 02:27:00,VALID,916.521,VALID,0,VALID,99.4331,VALID,-0.0509425,VALID,18.3991,VALID,193,VALID,0,
2000-05-30, 02:28:00,VALID,916.511,VALID,0,VALID,99.4547,VALID,-0.0169808,VALID,18.4155,VALID,193,VALID,0,
2000-05-30, 02:29:00,VALID,916.489,VALID,0,VALID,99.4649,VALID,-0.0339617,VALID,18.4372,VALID,193,VALID,0,
2000-05-30, 02:30:00,VALID,916.491,VALID,0,VALID,99.4395,VALID,-0.0509425,VALID,18.418,VALID,193,VALID,0,
2000-05-30, 02:31:00,VALID,916.475,VALID,0,VALID,99.4293,VALID,-0.0169808,VALID,18.4111,VALID,188,VALID,0,
2000-05-30, 02:32:00,VALID,916.477,VALID,0,VALID,99.4293,VALID,-0.0169808,VALID,18.421,VALID,175,VALID,0,
2000-05-30, 02:33:00,VALID,916.463,VALID,0,VALID,99.4789,VALID,-0.0509425,VALID,18.4637,VALID,138,VALID,0,
2000-05-30, 02:34:00,VALID,916.452,VALID,0,VALID,99.4306,VALID,-0.0509425,VALID,18.4409,VALID,119,VALID,0,
2000-05-30, 02:35:00,VALID,916.456,VALID,0,VALID,99.4064,VALID,-0.0339617,VALID,18.4245,VALID,106,VALID,0,
2000-05-30, 02:36:00,VALID,916.465,VALID,0,VALID,99.3352,VALID,-0.0509425,VALID,18.3795,VALID,100,VALID,0,
2000-05-30, 02:37:00,VALID,916.478,VALID,0,VALID,99.3886,VALID,0,VALID,18.4533,VALID,29,VALID,0,
2000-05-30, 02:38:00,VALID,916.48,VALID,0,VALID,99.4789,VALID,-0.0509425,VALID,18.502,VALID,29,VALID,0,
2000-05-30, 02:39:00,VALID,916.483,VALID,0,VALID,99.4992,VALID,-0.0169808,VALID,18.54,VALID,343,VALID,0,
2000-05-30, 02:40:00,VALID,916.478,VALID,0,VALID,99.5031,VALID,0.0509425,VALID,18.5557,VALID,308,VALID,0,
2000-05-30, 02:41:00,VALID,916.457,VALID,0,VALID,99.5158,VALID,0,VALID,18.5786,VALID,308,VALID,0,
2000-05-30, 02:42:00,VALID,916.421,VALID,0,VALID,99.5234,VALID,0.0339617,VALID,18.6049,VALID,308,VALID,0,
2000-05-30, 02:43:00,VALID,916.4,VALID,0,VALID,99.5209,VALID,0,VALID,18.6079,VALID,299,VALID,0,
2000-05-30, 02:44:00,VALID,916.365,VALID,0,VALID,99.5081,VALID,0,VALID,18.6046,VALID,294,VALID,0,
2000-05-30, 02:45:00,VALID,916.346,VALID,0,VALID,99.5259,VALID,0,VALID,18.6146,VALID,216,VALID,0,
2000-05-30, 02:46:00,VALID,916.332,VALID,0,VALID,99.5412,VALID,0,VALID,18.6466,VALID,115,VALID,0,
2000-05-30, 02:47:00,VALID,916.335,VALID,0,VALID,99.4992,VALID,0.0169808,VALID,18.6233,VALID,104,VALID,0,
2000-05-30, 02:48:00,VALID,916.347,VALID,0,VALID,99.4687,VALID,0.0509425,VALID,18.5947,VALID,104,VALID,0,
2000-05-30, 02:49:00,VALID,916.349,VALID,0,VALID,99.4395,VALID,0.0169808,VALID,18.5656,VALID,104,VALID,0,
2000-05-30, 02:50:00,VALID,916.361,VALID,0,VALID,99.409,VALID,0.0169808,VALID,18.5403,VALID,104,VALID,0,
2000-05-30, 02:51:00,VALID,916.383,VALID,0,VALID,99.4102,VALID,0.0169808,VALID,18.5237,VALID,104,VALID,0,
2000-05-30, 02:52:00,VALID,916.39,VALID,0,VALID,99.4191,VALID,0.0339617,VALID,18.5306,VALID,104,VALID,0,
2000-05-30, 02:53:00,VALID,916.395,VALID,0,VALID,99.4255,VALID,0.0169808,VALID,18.5301,VALID,104,VALID,0,
2000-05-30, 02:54:00,VALID,916.399,VALID,0,VALID,99.4611,VALID,0.0169808,VALID,18.5299,VALID,104,VALID,0,
2000-05-30, 02:55:00,VALID,916.393,VALID,0,VALID,99.4357,VALID,0.0169808,VALID,18.5202,VALID,109,VALID,0,
2000-05-30, 02:56:00,VALID,916.394,VALID,0,VALID,99.428,VALID,0.0339617,VALID,18.5202,VALID,114,VALID,0,
2000-05-30, 02:57:00,VALID,916.392,VALID,0,VALID,99.4217,VALID,0.0169808,VALID,18.5237,VALID,114,VALID,0,
2000-05-30, 02:58:00,VALID,916.382,VALID,0,VALID,99.4229,VALID,0.0509425,VALID,18.5073,VALID,114,VALID,0,
2000-05-30, 02:59:00,VALID,916.385,VALID,0,VALID,99.4293,VALID,0.0169808,VALID,18.5338,VALID,113,VALID,0,
2000-05-30, 03:00:00,VALID,916.373,VALID,0,VALID,99.4204,VALID,0.0339617,VALID,18.5133,VALID,113,VALID,0,
2000-05-30, 03:01:00,VALID,916.376,VALID,0,VALID,99.4509,VALID,0.0509425,VALID,18.5751,VALID,113,VALID,0,
2000-05-30, 03:02:00,VALID,916.377,VALID,0,VALID,99.4738,VALID,0.0509425,VALID,18.6014,VALID,113,VALID,0,
2000-05-30, 03:03:00,VALID,916.369,VALID,0,VALID,99.4395,VALID,0.0509425,VALID,18.5855,VALID,113,VALID,0,
2000-05-30, 03:04:00,VALID,916.365,VALID,0,VALID,99.4471,VALID,0.0509425,VALID,18.5915,VALID,109,VALID,0,
2000-05-30, 03:05:00,VALID,916.366,VALID,0,VALID,99.4687,VALID,0.0339617,VALID,18.6146,VALID,107,VALID,0,
2000-05-30, 03:06:00,VALID,916.357,VALID,0,VALID,99.4967,VALID,0.0169808,VALID,18.6469,VALID,107,VALID,0,
2000-05-30, 03:07:00,VALID,916.355,VALID,0,VALID,99.5081,VALID,0.0169808,VALID,18.6914,VALID,100,VALID,0,
2000-05-30, 03:08:00,VALID,916.335,VALID,0,VALID,99.5781,VALID,0.0509425,VALID,18.8049,VALID,58,VALID,0,
2000-05-30, 03:09:00,VALID,916.312,VALID,0,VALID,99.5285,VALID,-0.0679233,VALID,18.7994,VALID,103,VALID,0,
2000-05-30, 03:10:00,VALID,916.304,VALID,0,VALID,99.5107,VALID,-0.0849042,VALID,18.7966,VALID,102,VALID,0,
2000-05-30, 03:11:00,VALID,916.305,VALID,0,VALID,99.5323,VALID,-0.101885,VALID,18.8386,VALID,86,VALID,0,
2000-05-30, 03:12:00,VALID,916.3,VALID,0,VALID,99.5819,VALID,-0.101885,VALID,18.9487,VALID,77,VALID,0,
2000-05-30, 03:13:00,VALID,916.314,VALID,0,VALID,99.5883,VALID,-0.0849042,VALID,18.9909,VALID,85,VALID,0,
2000-05-30, 03:14:00,VALID,916.334,VALID,0,VALID,99.5743,VALID,-0.101885,VALID,18.9805,VALID,86,VALID,0,
2000-05-30, 03:15:00,VALID,916.342,VALID,0,VALID,99.5794,VALID,-0.0849042,VALID,19.0059,VALID,90,VALID,1.01647,
2000-05-30, 03:16:00,VALID,916.346,VALID,0,VALID,99.6048,VALID,-0.0679233,VALID,19.0772,VALID,84,VALID,1.27196,
2000-05-30, 03:17:00,VALID,916.337,VALID,0,VALID,99.5794,VALID,-0.0339617,VALID,19.0931,VALID,91,VALID,1.22681,
2000-05-30, 03:18:00,VALID,916.331,VALID,0,VALID,99.573,VALID,-0.0679233,VALID,19.1155,VALID,93,VALID,1.0332,
2000-05-30, 03:19:00,VALID,916.318,VALID,0,VALID,99.5476,VALID,-0.0679233,VALID,19.1356,VALID,81,VALID,0.341797,
2000-05-30, 03:20:00,VALID,916.309,VALID,0,VALID,99.5463,VALID,-0.0849042,VALID,19.1644,VALID,69,VALID,0.377131,
2000-05-30, 03:21:00,VALID,916.282,VALID,0,VALID,99.517,VALID,-0.0679233,VALID,19.1771,VALID,102,VALID,1.22081,
2000-05-30, 03:22:00,VALID,916.264,VALID,0,VALID,99.5056,VALID,-0.0849042,VALID,19.187,VALID,86,VALID,1.24487,
2000-05-30, 03:23:00,VALID,916.252,VALID,0,VALID,99.5031,VALID,-0.0849042,VALID,19.2032,VALID,86,VALID,1.42279,
2000-05-30, 03:24:00,VALID,916.257,VALID,0,VALID,99.484,VALID,-0.0679233,VALID,19.2228,VALID,67,VALID,1.13302,
2000-05-30, 03:25:00,VALID,916.257,VALID,0,VALID,99.4611,VALID,-0.0679233,VALID,19.2283,VALID,78,VALID,0.61022,
2000-05-30, 03:26:00,VALID,916.263,VALID,0,VALID,99.4433,VALID,-0.0679233,VALID,19.2447,VALID,95,VALID,0.583252,
2000-05-30, 03:27:00,VALID,916.266,VALID,0,VALID,99.3835,VALID,-0.0509425,VALID,19.2355,VALID,86,VALID,0.841146,
2000-05-30, 03:28:00,VALID,916.251,VALID,0,VALID,99.3212,VALID,-0.0679233,VALID,19.19,VALID,88,VALID,0.876519,
2000-05-30, 03:29:00,VALID,916.244,VALID,0,VALID,99.2958,VALID,-0.0679233,VALID,19.1604,VALID,93,VALID,0.325284,
2000-05-30, 03:30:00,VALID,916.258,VALID,0,VALID,99.2665,VALID,-0.0679233,VALID,19.1261,VALID,97,VALID,0.0509868,
2000-05-30, 03:31:00,VALID,916.254,VALID,0,VALID,99.2754,VALID,-0.0339617,VALID,19.1284,VALID,110,VALID,0,
2000-05-30, 03:32:00,VALID,916.246,VALID,0,VALID,99.2525,VALID,-0.0679233,VALID,19.109,VALID,238,VALID,0.324449,
2000-05-30, 03:33:00,VALID,916.253,VALID,0,VALID,99.1864,VALID,-0.0679233,VALID,19.0613,VALID,287,VALID,0.436444,
2000-05-30, 03:34:00,VALID,916.262,VALID,0,VALID,99.1406,VALID,-0.0509425,VALID,19.0151,VALID,290,VALID,0.407728,
2000-05-30, 03:35:00,VALID,916.26,VALID,0,VALID,99.147,VALID,-0.0509425,VALID,18.9895,VALID,270,VALID,0,
2000-05-30, 03:36:00,VALID,916.269,VALID,0,VALID,99.1724,VALID,-0.0339617,VALID,18.9989,VALID,138,VALID,0,
2000-05-30, 03:37:00,VALID,916.262,VALID,0,VALID,99.203,VALID,-0.0679233,VALID,18.986,VALID,138,VALID,0,
2000-05-30, 03:38:00,VALID,916.262,VALID,0,VALID,99.2882,VALID,-0.0509425,VALID,19.0215,VALID,118,VALID,0.149384,
2000-05-30, 03:39:00,VALID,916.264,VALID,0,VALID,99.3416,VALID,0,VALID,19.0663,VALID,113,VALID,0.0456414,
2000-05-30, 03:40:00,VALID,916.263,VALID,0,VALID,99.3594,VALID,0.0169808,VALID,19.0954,VALID,113,VALID,0,
2000-05-30, 03:41:00,VALID,916.258,VALID,0,VALID,99.367,VALID,0.0169808,VALID,19.1145,VALID,113,VALID,0,